Location: Breckenridge
(39.4820°N, 106.0380°W)
Time: 10:11:33
(UTC-06:00)

ISS - Visible Passes

Search period start: 20 October 2019 00:00
Search period end: 30 October 2019 00:00
Orbit: 411 x 421 km, 51.6° (Epoch: 20 October)

Date Brightness Start Highest point End Pass type
(mag) Time Alt. Az. Time Alt. Az. Time Alt. Az.
22 Oct -0.9 06:32:48 10° S 06:35:12 18° SE 06:37:36 10° E visible
23 Oct -0.4 05:46:23 10° SE 05:46:48 10° SE 05:47:12 10° ESE visible
24 Oct -3.1 06:31:13 10° SW 06:34:29 55° SE 06:37:46 10° ENE visible
25 Oct -2.0 05:44:14 19° S 05:45:57 29° SE 05:48:55 10° ENE visible
26 Oct -0.8 04:58:24 15° ESE 04:58:24 15° ESE 04:59:43 10° E visible
26 Oct -3.5 06:31:21 15° WSW 06:33:56 50° NW 06:37:12 10° NE visible
27 Oct -3.9 05:45:17 88° N 05:45:17 88° N 05:48:37 10° NE visible
28 Oct -0.8 04:59:04 16° ENE 04:59:04 16° ENE 04:59:54 10° ENE visible
28 Oct -2.3 06:31:59 17° WNW 06:33:33 23° NNW 06:36:19 10° NNE visible
29 Oct -2.4 05:45:37 29° N 05:45:37 29° N 05:47:50 10° NE visible
